| time (UTC) | temp F | wind direction | speed knots | gust knots | rain 1hr in | rain 24hr in | rain mn in | humidity % | barometer mb |
| 20260503005821 | 59 | 350 | 0.0 | 2.6 | 0.00 | 0.00 | 0.00 | 72 | 1023.3 |
| 20260503005319 | 59 | 334 | 0.9 | 2.6 | 0.00 | 0.00 | 0.00 | 72 | 1023.3 |
| 20260503004815 | 59 | 21 | 0.0 | 3.5 | 0.00 | 0.00 | 0.00 | 73 | 1023.5 |
| 20260503004313 | 60 | 7 | 2.6 | 3.5 | 0.00 | 0.00 | 0.00 | 73 | 1023.2 |
| 20260503003810 | 60 | 60 | 0.0 | 4.3 | 0.00 | 0.00 | 0.00 | 73 | 1023.3 |
| 20260503003307 | 61 | 47 | 2.6 | 3.5 | 0.00 | 0.00 | 0.00 | 73 | 1023.3 |
| 20260503002804 | 61 | 20 | 2.6 | 4.3 | 0.00 | 0.00 | 0.00 | 73 | 1023.2 |
| 20260503002301 | 61 | 320 | 0.0 | 3.5 | 0.00 | 0.00 | 0.00 | 73 | 1023.2 |
| 20260503001757 | 62 | 315 | 2.6 | 3.5 | 0.00 | 0.00 | 0.00 | 73 | 1023.3 |
| 20260503001253 | 61 | 50 | 2.6 | 7.0 | 0.00 | 0.00 | 0.00 | 73 | 1023.0 |
| 20260503000751 | 62 | 43 | 4.3 | 6.1 | 0.00 | 0.00 | 0.00 | 73 | 1023.0 |
| 20260503000248 | 62 | 53 | 3.5 | 6.1 | 0.00 | 0.00 | 0.00 | 73 | 1023.0 |
| 20260502235745 | 62 | 72 | 1.7 | 7.0 | 0.00 | 0.00 | 0.00 | 73 | 1023.0 |
| 20260502235243 | 62 | 52 | 3.5 | 7.8 | 0.00 | 0.00 | 0.00 | 73 | 1023.2 |
| 20260502234739 | 62 | 35 | 5.2 | 6.1 | 0.00 | 0.00 | 0.00 | 73 | 1023.2 |
| 20260502234236 | 63 | 320 | 2.6 | 4.3 | 0.00 | 0.00 | 0.00 | 73 | 1023.0 |
| 20260502233732 | 62 | 331 | 4.3 | 7.8 | 0.00 | 0.00 | 0.00 | 73 | 1023.0 |
| 20260502233229 | 62 | 330 | 2.6 | 7.8 | 0.00 | 0.00 | 0.00 | 73 | 1023.0 |
| 20260502232725 | 63 | 294 | 5.2 | 10.4 | 0.00 | 0.00 | 0.00 | 73 | 1023.0 |
| 20260502232222 | 63 | 2 | 3.5 | 9.6 | 0.00 | 0.00 | 0.00 | 73 | 1023.2 |
| 20260502231719 | 62 | 53 | 2.6 | 8.7 | 0.00 | 0.00 | 0.00 | 73 | 1023.0 |
| 20260502231217 | 62 | 338 | 5.2 | 13.0 | 0.00 | 0.00 | 0.00 | 73 | 1023.1 |
| 20260502230715 | 63 | 3 | 4.3 | 8.7 | 0.00 | 0.00 | 0.00 | 73 | 1023.1 |
| 20260502230213 | 63 | 6 | 5.2 | 6.1 | 0.00 | 0.00 | 0.00 | 73 | 1023.0 |
| 20260502225708 | 63 | 36 | 4.3 | 11.3 | 0.00 | 0.00 | 0.00 | 73 | 1023.0 |
| 20260502225206 | 63 | 30 | 3.5 | 8.7 | 0.00 | 0.00 | 0.00 | 73 | 1022.9 |
| 20260502224702 | 63 | 270 | 5.2 | 7.0 | 0.00 | 0.00 | 0.00 | 73 | 1022.9 |
| 20260502224159 | 63 | 326 | 5.2 | 7.0 | 0.00 | 0.00 | 0.00 | 73 | 1022.8 |
| 20260502223656 | 64 | 5 | 8.7 | 13.9 | 0.00 | 0.00 | 0.00 | 73 | 1022.9 |
| 20260502223155 | 64 | 310 | 6.1 | 9.6 | 0.00 | 0.00 | 0.00 | 73 | 1023.0 |
| 20260502222652 | 63 | 358 | 3.5 | 10.4 | 0.00 | 0.00 | 0.00 | 73 | 1022.9 |
| 20260502222149 | 64 | 11 | 1.7 | 4.3 | 0.00 | 0.00 | 0.00 | 73 | 1023.0 |
| 20260502221644 | 63 | 326 | 3.5 | 7.8 | 0.00 | 0.00 | 0.00 | 73 | 1022.8 |
| 20260502221142 | 63 | 24 | 4.3 | 8.7 | 0.00 | 0.00 | 0.00 | 73 | 1023.0 |
| 20260502220638 | 64 | 331 | 0.9 | 9.6 | 0.00 | 0.00 | 0.00 | 73 | 1022.7 |
| 20260502220134 | 64 | 346 | 2.6 | 6.1 | 0.00 | 0.00 | 0.00 | 73 | 1022.7 |
| 20260502215631 | 64 | 324 | 0.0 | 9.6 | 0.00 | 0.00 | 0.00 | 73 | 1022.9 |
| 20260502215128 | 64 | 30 | 0.0 | 9.6 | 0.00 | 0.00 | 0.00 | 73 | 1022.9 |
| 20260502214625 | 63 | 11 | 1.7 | 7.8 | 0.00 | 0.00 | 0.00 | 73 | 1022.8 |
| 20260502214122 | 63 | 18 | 4.3 | 13.0 | 0.00 | 0.00 | 0.00 | 73 | 1022.8 |
| 20260502213620 | 63 | 12 | 6.1 | 7.8 | 0.00 | 0.00 | 0.00 | 73 | 1022.6 |
| 20260502213117 | 64 | 313 | 2.6 | 8.7 | 0.00 | 0.00 | 0.00 | 73 | 1022.8 |
| 20260502212616 | 64 | 0 | 2.6 | 6.1 | 0.00 | 0.00 | 0.00 | 73 | 1022.8 |
| 20260502212114 | 63 | 324 | 4.3 | 8.7 | 0.00 | 0.00 | 0.00 | 73 | 1022.8 |
| 20260502211608 | 64 | 313 | 7.8 | 10.4 | 0.00 | 0.00 | 0.00 | 73 | 1022.7 |
| 20260502211106 | 63 | 0 | 7.8 | 9.6 | 0.00 | 0.00 | 0.00 | 73 | 1022.8 |
| 20260502210603 | 64 | 147 | 1.7 | 11.3 | 0.00 | 0.00 | 0.00 | 73 | 1023.0 |
| 20260502210100 | 63 | 69 | 6.1 | 9.6 | 0.00 | 0.00 | 0.00 | 73 | 1023.1 |
| 20260502205556 | 64 | 16 | 2.6 | 7.8 | 0.00 | 0.00 | 0.00 | 73 | 1022.9 |
| 20260502205054 | 65 | 18 | 0.0 | 8.7 | 0.00 | 0.00 | 0.00 | 73 | 1023.0 |
| 20260502204550 | 64 | 349 | 2.6 | 7.8 | 0.00 | 0.00 | 0.00 | 73 | 1023.0 |
| 20260502204048 | 64 | 279 | 7.0 | 7.8 | 0.00 | 0.00 | 0.00 | 73 | 1023.1 |
| 20260502203545 | 63 | 17 | 5.2 | 9.6 | 0.00 | 0.00 | 0.00 | 73 | 1023.2 |
| 20260502203042 | 64 | 342 | 7.8 | 9.6 | 0.00 | 0.00 | 0.00 | 73 | 1023.3 |
| 20260502202538 | 63 | 318 | 5.2 | 13.9 | 0.00 | 0.00 | 0.00 | 73 | 1023.3 |
| 20260502202036 | 63 | 333 | 8.7 | 9.6 | 0.00 | 0.00 | 0.00 | 73 | 1023.2 |
| 20260502201532 | 64 | 340 | 5.2 | 8.7 | 0.00 | 0.00 | 0.00 | 73 | 1023.2 |
| 20260502201029 | 64 | 335 | 6.1 | 9.6 | 0.00 | 0.00 | 0.00 | 73 | 1023.3 |
| 20260502200524 | 63 | 263 | 8.7 | 10.4 | 0.00 | 0.00 | 0.00 | 73 | 1023.3 |
| 20260502200023 | 63 | 29 | 5.2 | 10.4 | 0.00 | 0.00 | 0.00 | 73 | 1023.1 |
| 20260502195521 | 63 | 338 | 4.3 | 13.0 | 0.00 | 0.00 | 0.00 | 73 | 1023.2 |
| 20260502195015 | 62 | 278 | 4.3 | 9.6 | 0.00 | 0.00 | 0.00 | 73 | 1023.3 |
| 20260502194513 | 62 | 263 | 7.8 | 12.2 | 0.00 | 0.00 | 0.00 | 73 | 1023.3 |
| 20260502194009 | 63 | 309 | 3.5 | 7.0 | 0.00 | 0.00 | 0.00 | 73 | 1023.5 |
| 20260502193506 | 63 | 334 | 6.1 | 12.2 | 0.00 | 0.00 | 0.00 | 73 | 1023.3 |
| 20260502193003 | 63 | 321 | 4.3 | 13.0 | 0.00 | 0.00 | 0.00 | 73 | 1023.3 |
| 20260502192458 | 62 | 276 | 7.8 | 12.2 | 0.00 | 0.00 | 0.00 | 73 | 1023.2 |
| 20260502191955 | 63 | 338 | 5.2 | 10.4 | 0.00 | 0.00 | 0.00 | 73 | 1023.3 |
| 20260502191453 | 63 | 25 | 5.2 | 11.3 | 0.00 | 0.00 | 0.00 | 73 | 1023.3 |
| 20260502190950 | 63 | 270 | 2.6 | 9.6 | 0.00 | 0.00 | 0.00 | 73 | 1023.2 |
| 20260502190448 | 62 | 352 | 2.6 | 12.2 | 0.00 | 0.00 | 0.00 | 73 | 1023.6 |
| 20260502185944 | 63 | 325 | 7.0 | 10.4 | 0.00 | 0.00 | 0.00 | 73 | 1023.5 |
| 20260502185440 | 62 | 326 | 7.0 | 9.6 | 0.00 | 0.00 | 0.00 | 73 | 1023.2 |
| 20260502184937 | 62 | 286 | 1.7 | 11.3 | 0.00 | 0.00 | 0.00 | 73 | 1023.5 |
| 20260502184432 | 64 | 279 | 8.7 | 12.2 | 0.00 | 0.00 | 0.00 | 73 | 1023.5 |
| 20260502183929 | 62 | 265 | 0.0 | 10.4 | 0.00 | 0.00 | 0.00 | 73 | 1023.3 |
| 20260502183425 | 62 | 358 | 2.6 | 9.6 | 0.00 | 0.00 | 0.00 | 73 | 1023.5 |
| 20260502182920 | 63 | 286 | 2.6 | 8.7 | 0.00 | 0.00 | 0.00 | 73 | 1023.5 |
| 20260502182416 | 62 | 257 | 5.2 | 11.3 | 0.00 | 0.00 | 0.00 | 73 | 1023.6 |
| 20260502181912 | 62 | 43 | 4.3 | 9.6 | 0.00 | 0.00 | 0.00 | 73 | 1023.8 |
| 20260502181411 | 62 | 334 | 3.5 | 10.4 | 0.00 | 0.00 | 0.00 | 73 | 1023.5 |
| 20260502180909 | 63 | 347 | 3.5 | 6.1 | 0.00 | 0.00 | 0.00 | 73 | 1023.6 |
| 20260502180400 | 62 | 355 | 4.3 | 12.2 | 0.00 | 0.00 | 0.00 | 73 | 1023.8 |
| 20260502170318 | 60 | 10 | 1.7 | 8.7 | 0.00 | 0.00 | 0.00 | 73 | 1024.1 |
| 20260502164306 | 60 | 47 | 5.2 | 11.3 | 0.00 | 0.00 | 0.00 | 73 | 1023.9 |
| 20260502163802 | 61 | 14 | 1.7 | 8.7 | 0.00 | 0.00 | 0.00 | 73 | 1023.8 |
| 20260502163258 | 61 | 326 | 6.1 | 10.4 | 0.00 | 0.00 | 0.00 | 73 | 1024.1 |
| 20260502162756 | 61 | 330 | 7.8 | 10.4 | 0.00 | 0.00 | 0.00 | 73 | 1023.9 |
| 20260502162253 | 61 | 297 | 5.2 | 10.4 | 0.00 | 0.00 | 0.00 | 73 | 1023.7 |
| 20260502161749 | 61 | 10 | 4.3 | 12.2 | 0.00 | 0.00 | 0.00 | 73 | 1024.0 |
| 20260502161246 | 60 | 342 | 3.5 | 12.2 | 0.00 | 0.00 | 0.00 | 73 | 1023.8 |
| 20260502160744 | 60 | 249 | 5.2 | 9.6 | 0.00 | 0.00 | 0.00 | 73 | 1023.9 |
| 20260502160243 | 60 | 281 | 6.1 | 14.8 | 0.00 | 0.00 | 0.00 | 73 | 1023.7 |
| 20260502152212 | 60 | 253 | 6.1 | 9.6 | 0.00 | 0.00 | 0.00 | 73 | 1023.4 |
| 20260502151709 | 60 | 328 | 9.6 | 11.3 | 0.00 | 0.00 | 0.00 | 73 | 1023.6 |
| 20260502151206 | 59 | 279 | 3.5 | 6.1 | 0.00 | 0.00 | 0.00 | 73 | 1023.5 |
| 20260502150704 | 59 | 270 | 5.2 | 9.6 | 0.00 | 0.00 | 0.00 | 73 | 1023.3 |
| 20260502150200 | 59 | 0 | 6.1 | 7.8 | 0.00 | 0.00 | 0.00 | 73 | 1023.6 |
| 20260502140124 | 57 | 306 | 5.2 | 9.6 | 0.00 | 0.00 | 0.00 | 72 | 1023.3 |
| 20260502130543 | 53 | 336 | 3.5 | 5.2 | 0.00 | 0.00 | 0.00 | 72 | 1023.0 |
| 20260502123526 | 50 | 260 | 0.0 | 2.6 | 0.00 | 0.00 | 0.00 | 72 | 1022.8 |
| 20260502123022 | 49 | 257 | 0.9 | 2.6 | 0.00 | 0.00 | 0.00 | 72 | 1023.0 |
| 20260502122519 | 48 | 263 | 2.6 | 3.5 | 0.00 | 0.00 | 0.00 | 71 | 1022.7 |
| 20260502122017 | 48 | 270 | 1.7 | 2.6 | 0.00 | 0.00 | 0.00 | 71 | 1022.6 |
| 20260502121514 | 46 | 286 | 1.7 | 2.6 | 0.00 | 0.00 | 0.00 | 71 | 1022.7 |
| 20260502121011 | 46 | 259 | 2.6 | 3.5 | 0.00 | 0.00 | 0.00 | 71 | 1022.7 |
| 20260502120508 | 46 | 246 | 2.6 | 3.5 | 0.00 | 0.00 | 0.00 | 71 | 1022.4 |
| 20260502115502 | 45 | 261 | 1.7 | 3.5 | 0.00 | 0.00 | 0.00 | 71 | 1022.4 |
| 20260502114958 | 45 | 270 | 2.6 | 3.5 | 0.00 | 0.00 | 0.00 | 71 | 1022.3 |
| 20260502114455 | 44 | 265 | 3.5 | 3.5 | 0.00 | 0.00 | 0.00 | 71 | 1022.3 |
| 20260502113952 | 44 | 256 | 2.6 | 3.5 | 0.00 | 0.00 | 0.00 | 71 | 1022.4 |
| 20260502113449 | 44 | 236 | 3.5 | 3.5 | 0.00 | 0.00 | 0.00 | 71 | 1022.4 |
| 20260502112948 | 44 | 253 | 3.5 | 3.5 | 0.00 | 0.00 | 0.00 | 71 | 1022.0 |
| 20260502112445 | 44 | 267 | 3.5 | 3.5 | 0.00 | 0.00 | 0.00 | 71 | 1022.4 |
| 20260502111942 | 44 | 265 | 3.5 | 4.3 | 0.00 | 0.00 | 0.00 | 71 | 1022.3 |
| 20260502111440 | 44 | 346 | 0.0 | 2.6 | 0.00 | 0.00 | 0.00 | 71 | 1022.2 |
| 20260502110937 | 44 | 265 | 2.6 | 3.5 | 0.00 | 0.00 | 0.00 | 71 | 1022.2 |
| 20260502110434 | 44 | 252 | 4.3 | 4.3 | 0.00 | 0.00 | 0.00 | 71 | 1022.0 |
| 20260502105931 | 44 | 254 | 3.5 | 3.5 | 0.00 | 0.00 | 0.00 | 71 | 1022.0 |
| 20260502105429 | 44 | 265 | 2.6 | 3.5 | 0.00 | 0.00 | 0.00 | 71 | 1022.0 |
| 20260502104927 | 44 | 270 | 2.6 | 3.5 | 0.00 | 0.00 | 0.00 | 71 | 1022.3 |
| 20260502104424 | 44 | 222 | 2.6 | 4.3 | 0.00 | 0.00 | 0.00 | 71 | 1022.0 |
| 20260502103921 | 44 | 246 | 3.5 | 3.5 | 0.00 | 0.00 | 0.00 | 71 | 1022.0 |
| 20260502103419 | 44 | 264 | 3.5 | 4.3 | 0.00 | 0.00 | 0.00 | 71 | 1022.0 |
| 20260502102915 | 45 | 254 | 4.3 | 4.3 | 0.00 | 0.00 | 0.00 | 71 | 1022.0 |
| 20260502102412 | 45 | 251 | 3.5 | 5.2 | 0.00 | 0.00 | 0.00 | 71 | 1021.7 |
| 20260502101909 | 44 | 265 | 4.3 | 6.1 | 0.00 | 0.00 | 0.00 | 71 | 1021.8 |
| 20260502101408 | 45 | 252 | 4.3 | 5.2 | 0.00 | 0.00 | 0.00 | 71 | 1021.9 |
| 20260502100905 | 45 | 247 | 4.3 | 5.2 | 0.00 | 0.00 | 0.00 | 71 | 1022.0 |
| 20260502100405 | 45 | 270 | 3.5 | 4.3 | 0.00 | 0.00 | 0.00 | 71 | 1021.8 |
| 20260502091338 | 47 | 302 | 2.6 | 2.6 | 0.00 | 0.00 | 0.00 | 71 | 1021.7 |
| 20260502090836 | 46 | 328 | 0.0 | 1.7 | 0.00 | 0.00 | 0.00 | 71 | 1021.5 |
| 20260502090332 | 46 | 344 | 1.7 | 1.7 | 0.00 | 0.00 | 0.00 | 71 | 1021.4 |
| 20260502071227 | 44 | 221 | 0.0 | 2.6 | 0.00 | 0.00 | 0.00 | 71 | 1021.9 |
| 20260502070726 | 44 | 255 | 1.7 | 2.6 | 0.00 | 0.00 | 0.00 | 71 | 1021.8 |
| 20260502070223 | 45 | 254 | 2.6 | 2.6 | 0.00 | 0.00 | 0.00 | 71 | 1021.9 |
| 20260502065721 | 46 | 252 | 2.6 | 3.5 | 0.00 | 0.00 | 0.00 | 71 | 1022.0 |
| 20260502065219 | 45 | 270 | 2.6 | 3.5 | 0.00 | 0.00 | 0.00 | 71 | 1022.2 |
| 20260502064717 | 46 | 253 | 2.6 | 2.6 | 0.00 | 0.00 | 0.00 | 71 | 1022.2 |
| 20260502064214 | 48 | 195 | 0.0 | 0.9 | 0.00 | 0.00 | 0.00 | 71 | 1022.2 |
| 20260502063712 | 45 | 194 | 0.0 | 1.7 | 0.00 | 0.00 | 0.00 | 71 | 1022.3 |
| 20260502063210 | 45 | 259 | 1.7 | 2.6 | 0.00 | 0.00 | 0.00 | 71 | 1022.3 |
| 20260502062706 | 46 | 248 | 1.7 | 2.6 | 0.00 | 0.00 | 0.00 | 71 | 1022.5 |
| 20260502062204 | 48 | 215 | 0.9 | 1.7 | 0.00 | 0.00 | 0.00 | 71 | 1022.3 |
| 20260502061702 | 45 | 191 | 0.0 | 1.7 | 0.00 | 0.00 | 0.00 | 71 | 1022.5 |
| 20260502061159 | 46 | 203 | 0.0 | 0.9 | 0.00 | 0.00 | 0.00 | 71 | 1022.3 |
| 20260502060654 | 46 | 210 | 1.7 | 1.7 | 0.00 | 0.00 | 0.00 | 71 | 1022.5 |
| 20260502060151 | 47 | 205 | 2.6 | 2.6 | 0.00 | 0.00 | 0.00 | 71 | 1022.4 |
| 20260502055649 | 47 | 186 | 0.9 | 0.9 | 0.00 | 0.00 | 0.00 | 71 | 1022.6 |
| 20260502055147 | 48 | 188 | 0.0 | 0.0 | 0.00 | 0.00 | 0.00 | 71 | 1022.5 |
| 20260502054646 | 48 | 188 | 0.0 | 0.9 | 0.00 | 0.00 | 0.00 | 71 | 1022.5 |
| 20260502054142 | 48 | 188 | 0.0 | 0.0 | 0.00 | 0.00 | 0.00 | 71 | 1022.5 |
| 20260502053640 | 48 | 195 | 0.0 | 1.7 | 0.00 | 0.00 | 0.00 | 71 | 1022.5 |
| 20260502053137 | 47 | 209 | 0.0 | 1.7 | 0.00 | 0.00 | 0.00 | 71 | 1022.5 |
| 20260502052635 | 48 | 237 | 0.9 | 1.7 | 0.00 | 0.00 | 0.00 | 71 | 1022.4 |
| 20260502052133 | 47 | 225 | 1.7 | 1.7 | 0.00 | 0.00 | 0.00 | 71 | 1022.5 |
| 20260502051631 | 45 | 260 | 1.7 | 1.7 | 0.00 | 0.00 | 0.00 | 71 | 1022.4 |
| 20260502051129 | 46 | 251 | 1.7 | 2.6 | 0.00 | 0.00 | 0.00 | 71 | 1022.2 |
| 20260502050625 | 46 | 258 | 2.6 | 3.5 | 0.00 | 0.00 | 0.00 | 71 | 1022.2 |
| 20260502050121 | 48 | 279 | 1.7 | 2.6 | 0.00 | 0.00 | 0.00 | 71 | 1022.2 |
| 20260502045618 | 47 | 263 | 2.6 | 2.6 | 0.00 | 0.00 | 0.00 | 71 | 1022.2 |
| 20260502045115 | 46 | 275 | 1.7 | 1.7 | 0.00 | 0.00 | 0.00 | 71 | 1022.4 |
| 20260502044612 | 47 | 270 | 1.7 | 2.6 | 0.00 | 0.00 | 0.00 | 71 | 1022.3 |
| 20260502044108 | 48 | 255 | 2.6 | 3.5 | 0.00 | 0.00 | 0.00 | 71 | 1022.3 |
| 20260502043606 | 48 | 277 | 0.9 | 0.9 | 0.00 | 0.00 | 0.00 | 71 | 1022.2 |
| 20260502043102 | 48 | 294 | 0.0 | 0.9 | 0.00 | 0.00 | 0.00 | 71 | 1022.4 |
| 20260502042557 | 51 | 0 | 1.7 | 1.7 | 0.00 | 0.00 | 0.00 | 72 | 1022.2 |
| 20260502042055 | 51 | 285 | 0.9 | 1.7 | 0.00 | 0.00 | 0.00 | 72 | 1022.6 |
| 20260502041552 | 48 | 328 | 0.0 | 0.9 | 0.00 | 0.00 | 0.00 | 71 | 1022.3 |
| 20260502041049 | 48 | 239 | 1.7 | 1.7 | 0.00 | 0.00 | 0.00 | 71 | 1022.2 |
| 20260502040545 | 48 | 304 | 0.0 | 1.7 | 0.00 | 0.00 | 0.00 | 71 | 1022.5 |
| 20260502040043 | 48 | 264 | 0.9 | 2.6 | 0.00 | 0.00 | 0.00 | 71 | 1022.4 |
| 20260502035538 | 49 | 258 | 2.6 | 2.6 | 0.00 | 0.00 | 0.00 | 71 | 1022.4 |
| 20260502035037 | 49 | 264 | 1.7 | 1.7 | 0.00 | 0.00 | 0.00 | 71 | 1022.5 |
| 20260502034535 | 50 | 258 | 0.9 | 1.7 | 0.00 | 0.00 | 0.00 | 72 | 1022.6 |
| 20260502034032 | 50 | 254 | 0.0 | 0.0 | 0.00 | 0.00 | 0.00 | 72 | 1022.5 |
| 20260502033530 | 50 | 270 | 0.9 | 1.7 | 0.00 | 0.00 | 0.00 | 72 | 1022.8 |
| 20260502033027 | 50 | 262 | 0.0 | 1.7 | 0.00 | 0.00 | 0.00 | 72 | 1022.7 |
| 20260502032523 | 50 | 285 | 0.0 | 1.7 | 0.00 | 0.00 | 0.00 | 72 | 1022.7 |
| 20260502032020 | 51 | 281 | 1.7 | 2.6 | 0.00 | 0.00 | 0.00 | 72 | 1022.7 |
| 20260502031518 | 51 | 270 | 2.6 | 2.6 | 0.00 | 0.00 | 0.00 | 72 | 1022.6 |
| 20260502031016 | 51 | 255 | 1.7 | 3.5 | 0.00 | 0.00 | 0.00 | 72 | 1022.8 |
| 20260502030514 | 51 | 243 | 2.6 | 3.5 | 0.00 | 0.00 | 0.00 | 72 | 1022.8 |
| 20260502030012 | 51 | 261 | 2.6 | 3.5 | 0.00 | 0.00 | 0.00 | 72 | 1022.9 |
| 20260502025509 | 52 | 259 | 2.6 | 3.5 | 0.00 | 0.00 | 0.00 | 72 | 1022.8 |
| 20260502025007 | 53 | 263 | 2.6 | 2.6 | 0.00 | 0.00 | 0.00 | 72 | 1022.9 |
| 20260502024504 | 52 | 265 | 1.7 | 2.6 | 0.00 | 0.00 | 0.00 | 72 | 1022.9 |
| 20260502024003 | 53 | 246 | 1.7 | 2.6 | 0.00 | 0.00 | 0.00 | 72 | 1022.9 |
| 20260502023500 | 53 | 240 | 1.7 | 2.6 | 0.00 | 0.00 | 0.00 | 72 | 1022.9 |
| 20260502022957 | 55 | 243 | 0.0 | 0.9 | 0.00 | 0.00 | 0.00 | 72 | 1022.7 |
| 20260502022453 | 55 | 74 | 0.0 | 0.9 | 0.00 | 0.00 | 0.00 | 72 | 1022.7 |
| 20260502021950 | 55 | 180 | 0.0 | 0.0 | 0.00 | 0.00 | 0.00 | 72 | 1022.6 |
| 20260502021448 | 56 | 195 | 0.0 | 0.9 | 0.00 | 0.00 | 0.00 | 72 | 1022.5 |
| 20260502020944 | 56 | 264 | 1.7 | 1.7 | 0.00 | 0.00 | 0.00 | 72 | 1022.4 |
| 20260502020443 | 57 | 198 | 0.9 | 1.7 | 0.00 | 0.00 | 0.00 | 72 | 1022.6 |
| 20260502015939 | 57 | 203 | 0.0 | 0.9 | 0.00 | 0.00 | 0.00 | 72 | 1022.5 |
| 20260502015437 | 57 | 246 | 0.0 | 0.0 | 0.00 | 0.00 | 0.00 | 72 | 1022.4 |
| 20260502014933 | 57 | 254 | 0.9 | 0.9 | 0.00 | 0.00 | 0.00 | 72 | 1022.2 |
| 20260502014430 | 57 | 262 | 0.0 | 0.0 | 0.00 | 0.00 | 0.00 | 72 | 1022.3 |
| 20260502013927 | 57 | 270 | 0.0 | 1.7 | 0.00 | 0.00 | 0.00 | 72 | 1022.3 |
| 20260502013422 | 57 | 240 | 0.0 | 1.7 | 0.00 | 0.00 | 0.00 | 72 | 1022.2 |
| 20260502012919 | 57 | 270 | 0.0 | 2.6 | 0.00 | 0.00 | 0.00 | 72 | 1022.4 |
| 20260502012417 | 57 | 312 | 1.7 | 3.5 | 0.00 | 0.00 | 0.00 | 72 | 1021.8 |
| 20260502011914 | 58 | 280 | 0.0 | 4.3 | 0.00 | 0.00 | 0.00 | 72 | 1021.9 |
| 20260502011410 | 58 | 35 | 0.0 | 3.5 | 0.00 | 0.00 | 0.00 | 72 | 1021.8 |
| 20260502010908 | 58 | 339 | 1.7 | 3.5 | 0.00 | 0.00 | 0.00 | 72 | 1021.6 |
| 20260502010404 | 58 | 14 | 0.0 | 4.3 | 0.00 | 0.00 | 0.00 | 72 | 1021.6 |